Location: Chippewa Lake
(41.0698°N, 81.9010°W)
Time: 19:54:35
(UTC+00:00)

Resurs 1-4 Rocket - Pass Details

Date: 09 May 2021
Orbit: 800 x 814 km, 98.6° (Epoch: 17 June)

Event Time Altitude Azimuth Distance (km) Brightness Sun altitude
Rises 08:35:24 0° 355° (N) 3,317 5.9 -16.6°
Reaches altitude 10° 08:38:44 10° 333° (NNW) 2,382 4.7 -16.1°
Maximum altitude 08:41:34 15° 300° (WNW) 2,053 4.0 -15.7°
Enters shadow 08:43:35 12° 275° (W) 2,222 4.0 -15.4°
